Location: Lamy Ridge Observatory
(35.5010°N, 105.8759°W)
Time: 17:34:06
(UTC-06:00)

ACS3 Solar Sail - Pass Details

Date: 12 September 2024
Orbit: 963 x 1036 km, 97.4° (Epoch: 04 October)

Event Time Altitude Azimuth Distance (km) Brightness Sun altitude
Rises 19:06:42 0° 86° (E) 3,775 4.2 0.6°
Enters shadow 20:25:37 -45° 162° (SSE) 10,250 6.9 -15.2°
Maximum altitude 20:53:30 45° 72° (ENE) 1,373 2.2 -20.6°
